This demonstration page uses our WeatherBlox Daily Observations layout. Learn more.

Left ArrowRight Arrow

34.74481, -87.66753

Hourly Observations for August 14, 2015

Temp ( °F °C ) Dew Point ( °F °C ) Humidity (%) Winds ( mph kmh ) Pressure ( in mb ) Visibility ( mi km ) Precip ( " mm )
12:53 am 00:53 Clear 71 21.7 57 13.9 61 61 ENE 5 7 30.07 1018 10 16 0.00 0.00
1:53 am 01:53 Clear 70 21.1 58 14.4 66 66 ENE 3 6 30.06 1018 10 16 0.00 0.00
2:53 am 02:53 Partly Cloudy 68 20 59 15 73 73 Calm 30.06 1018 10 16 0.00 0.00
3:53 am 03:53 Clear 68 20 59 15 73 73 Calm 30.05 1018 10 16 0.00 0.00
4:53 am 04:53 Mostly Clear 66 18.9 60 15.6 81 81 Calm 30.06 1018 10 16 0.00 0.00
5:53 am 05:53 Clear 66 18.9 60 15.6 81 81 Calm 30.07 1018 10 16 0.00 0.00
6:53 am 06:53 Sunny 67 19.4 60 15.6 79 79 Calm 30.08 1019 10 16 0.00 0.00
7:53 am 07:53 Sunny 72 22.2 62 16.7 71 71 Calm 30.10 1019 10 16 0.00 0.00
8:53 am 08:53 Sunny 75 23.9 62 16.7 64 64 E 5 7 30.11 1020 10 16 0.00 0.00
9:53 am 09:53 Sunny 78 25.6 64 17.8 62 62 ENE 3 6 30.11 1020 10 16 0.00 0.00
10:53 am 10:53 Sunny 82 27.8 67 19.4 60 60 VRB 3 6 30.12 1020 10 16 0.00 0.00
11:53 am 11:53 Sunny 85 29.4 69 20.6 59 59 VRB 3 6 30.11 1020 10 16 0.00 0.00
12:53 pm 12:53 Sunny 87 30.6 70 21.1 57 57 Calm 30.09 1019 10 16 0.00 0.00
1:53 pm 13:53 Sunny 90 32.2 71 21.7 54 54 NNW 3 6 30.06 1018 10 16 0.00 0.00
2:53 pm 14:53 Partly Cloudy 89 31.7 70 21.1 53 53 NNW 6 9 30.04 1017 10 16 0.00 0.00
3:53 pm 15:53 Partly Cloudy with Nearby Thunderstorms 89 31.7 69 20.6 52 52 VRB 5 7 30.03 1017 10 16 0.00 0.00
4:12 pm 16:12 Mostly Cloudy with Thunderstorms 83 28.3 67 19.4 59 59 ESE 17 28 30.03 1017 10 16 0.00 0.00
4:27 pm 16:27 Cloudy with Thunderstorms 75 23.9 68 20 79 79 S 12 19 30.06 1018 9 14 0.00 0.00
4:53 pm 16:53 Cloudy with Thunderstorms 72 22.2 69 20.6 91 91 S 17 28 30.07 1018 4 6 0.02 0.51
5:02 pm 17:02 Cloudy with Strong Thunderstorms 72 22.2 68 20 87 87 SSW 20 31 30.06 1018 2 3 0.11 2.79
5:19 pm 17:19 Cloudy with Nearby Thunderstorms 72 22.2 68 20 87 87 WSW 15 24 30.06 1018 3 4 0.23 5.84
5:30 pm 17:30 Cloudy with Light Rain 72 22.2 68 20 87 87 W 10 17 30.06 1018 5 8 0.24 6.10
5:38 pm 17:38 Cloudy with Nearby Thunderstorms 72 22.2 68 20 87 87 E 10 17 30.06 1018 6 10 0.25 6.35
5:53 pm 17:53 Cloudy with Light Rain 72 22.2 68 20 87 87 E 8 13 30.07 1018 7 11 0.26 6.60
6:53 pm 18:53 Mostly Cloudy 73 22.8 69 20.6 87 87 Calm 30.07 1018 7 11 0.03 0.76
7:53 pm 19:53 Mostly Clear 74 23.3 70 21.1 88 88 E 3 6 30.06 1018 8 13 0.01 0.25
8:53 pm 20:53 Clear 73 22.8 68 20 84 84 ENE 3 6 30.07 1018 10 16 0.00 0.00
9:53 pm 21:53 Clear 73 22.8 68 20 84 84 Calm 30.09 1019 10 16 0.00 0.00
10:53 pm 22:53 Clear 72 22.2 69 20.6 91 91 ENE 3 6 30.09 1019 9 14 0.00 0.00
11:53 pm 23:53 Mostly Cloudy 72 22.2 69 20.6 91 91 E 3 6 30.09 1019 10 16 0.00 0.00

Powered by AerisWeather